User: anonymous   Login
Location: Unspecified
(0.0000°N, 0.0000°E)
Time: 09:20:05
(UTC+00:00)
Language:

FALCONSAT 3 - Orbit

View from above orbital plane
View from above orbital plane
View from above satellite
View from above satellite

Ground track
Ground track

The orbit data is extracted from the following two-line orbital elements,

1 30776U 07006E   17086.44480583 +.00003870 +00000-0 +12491-3 0  9992
2 30776 035.4351 225.0049 0003769 296.7276 063.3063 15.31708210555714
Epoch (UTC): 27 March 2017 10:40:31
Eccentricity: 0.0003769
inclination: 35.4351°
perigee height: 468 km
apogee height: 473 km
right ascension of ascending node: 225.0049°
argument of perigee: 296.7276°
revolutions per day: 15.31708210
mean anomaly at epoch: 63.3063°
orbit number at epoch: 55571

The dashed part of the orbit path shows where the satellite is in the earth's shadow,  

DLR